sat.trackr.live / text

‹ back to catalog

STARLINK-11544 [DTC]

NORAD 62984 · 2025-031D

PAYLOAD ACTIVE UNKNOWN

§ Identity

Operator
Country
US
Launch date
2025-02-11
Launch site
AFETR
Launch vehicle
Mass (kg)
RCS (m²)

Purposes: comms

External: N2YO · Heavens-Above · Gunter

§ Orbital elements

Epoch: 2026-05-25T01:07:56.160192Z

Period
91.67 min
Inclination
43.0001°
Eccentricity
0.0000229
Mean motion
15.70878393 rev/d
Perigee alt
356.2 km
Apogee alt
356.5 km
Semi-major
6,734.5 km
B*
1.4195e-3
RAAN
261.0061°
Arg perigee
122.6013°
Mean anomaly
237.4877°
Rev number
7,472

§ Raw data

STARLINK-11544 [DTC]1 62984U 25031D   26145.04717778  .00186139  00000+0  14195-2 0  99982 62984  43.0001 261.0061 0000229 122.6013 237.4877 15.70878393 74722

JSON: /api/v1/satellites/62984 · /tle

For live sub-satellite position, see the globe view (requires WebGL).

§ Visibility from observer

Set your observer location to see the next 7 days of passes ≥ 10°. The values pass through the URL so the page stays shareable.

No JS? Fill the form by hand. The geolocation button needs JavaScript.